Pomona, MO

5:06 AM CST on December 04, 2016 (GMT -0600)
West Plains Municipal

Weather History for KUNO - March, 2014

Change the Weather History Date:

Sunday, March 23, 2014

  Actual Average Record
Temperature  
Mean Temperature 40 °F 50 °F  
Max Temperature 50 °F 62 °F 80 °F (1967)
Min Temperature 29 °F 38 °F 16 °F (1974)
Degree Days  
Heating Degree Days 25 15  
Month to date heating degree days 539 437  
Since 1 July heating degree days 4337 3901  
Cooling Degree Days 0 0  
Month to date cooling degree days 0 0  
Year to date cooling degree days 0 0  
Moisture  
Dew Point 14 °F    
Average Humidity 38    
Maximum Humidity 52    
Minimum Humidity 23    
Precipitation  
Precipitation 0.00 in 0.14 in 2.81 in (1969)
Month to date precipitation 2.68 3.01  
Year to date precipitation 4.53 8.57  
Sea Level Pressure  
Sea Level Pressure 30.34 in    
Wind  
Wind Speed 11 mph (NNE)    
Max Wind Speed 21 mph    
Max Gust Speed 26 mph    
Visibility 9 miles    
Events      
T = Trace of Precipitation, MM = Missing Value Source: NWS Daily Summary

Daily Weather History Graph

Daily Weather History Graph

Search for Another Location

Airport or City:

Trip Planner

Search our weather history database for the weather conditions in past years. The results will help you decide how hot, cold, wet, or windy it might be!

Date:

Astronomy

Mar. 23, 2014 Rise Set
Actual Time 7:06 AM CDT 7:22 PM CDT
Civil Twilight 6:40 AM CDT 7:48 PM CDT
Nautical Twilight 6:10 AM CDT 8:18 PM CDT
Astronomical Twilight 5:39 AM CDT 8:49 PM CDT
Moon 1:32 AM CDT (3/23) 11:55 AM CDT (3/23)
Length of Visible Light 13h 07m
Length of Day
12h 15m
Waning Gibbous, 54% of the Moon is Illuminated
Mar 23
Waning Gibbous
Mar 23
Last Quarter
Mar 30
New
Apr 7
First Quarter
Apr 15
Full

Hourly Weather History & Observations

Time (CDT) Temp. Windchill Dew Point Humidity Pressure Visibility Wind Dir Wind Speed Gust Speed Precip Events Conditions
12:53 AM 42.1 °F 33.9 °F 21.9 °F 45% 30.25 in 10.0 mi NNE 17.3 mph - N/A   Scattered Clouds
1:53 AM 39.9 °F 32.1 °F 19.9 °F 45% 30.27 in 10.0 mi NNE 13.8 mph 21.9 mph N/A   Mostly Cloudy
2:53 AM 37.9 °F 30.5 °F 19.0 °F 47% 30.27 in 10.0 mi North 11.5 mph - N/A   Mostly Cloudy
3:53 AM 36.0 °F 26.7 °F 19.0 °F 50% 30.29 in 10.0 mi North 15.0 mph 20.7 mph N/A   Mostly Cloudy
4:53 AM 35.1 °F 24.5 °F 17.1 °F 48% 30.30 in 10.0 mi North 18.4 mph 25.3 mph N/A   Overcast
5:53 AM 33.1 °F 23.0 °F 15.1 °F 48% 30.34 in 10.0 mi North 15.0 mph 26.5 mph N/A   Scattered Clouds
6:53 AM 30.0 °F 20.0 °F 12.9 °F 49% 30.35 in 10.0 mi NNE 12.7 mph - N/A   Clear
7:53 AM 30.0 °F 21.1 °F 9.0 °F 41% 30.38 in 10.0 mi NNE 10.4 mph - N/A   Clear
8:53 AM 32.0 °F 20.1 °F 9.0 °F 38% 30.39 in 10.0 mi NNE 19.6 mph 24.2 mph N/A   Clear
9:53 AM 36.0 °F 27.1 °F 12.9 °F 39% 30.40 in 10.0 mi NNE 13.8 mph - N/A   Clear
10:53 AM 37.9 °F 29.6 °F 16.0 °F 41% 30.41 in 10.0 mi NNE 13.8 mph 19.6 mph N/A   Clear
11:53 AM 41.0 °F 34.7 °F 16.0 °F 36% 30.40 in 10.0 mi NNE 10.4 mph 20.7 mph N/A   Clear
12:53 PM 44.1 °F 39.5 °F 17.1 °F 34% 30.39 in 10.0 mi North 8.1 mph - N/A   Clear
1:53 PM 46.0 °F 40.6 °F 18.0 °F 33% 30.37 in 10.0 mi NE 11.5 mph 19.6 mph N/A   Clear
2:53 PM 46.9 °F - 15.1 °F 28% 30.35 in 10.0 mi NNW 9.2 mph - N/A   Clear
3:53 PM 48.9 °F - 14.0 °F 25% 30.32 in 10.0 mi NNE 12.7 mph 18.4 mph N/A   Clear
4:53 PM 46.9 °F - 12.0 °F 24% 30.30 in 10.0 mi NNE 9.2 mph 19.6 mph N/A   Clear
5:53 PM 46.0 °F 40.2 °F 10.0 °F 23% 30.30 in 5.0 mi NNE 12.7 mph - N/A   Haze
6:53 PM 43.0 °F 38.8 °F 8.1 °F 24% 30.32 in 3.0 mi North 6.9 mph - N/A   Haze
7:53 PM 39.9 °F 36.7 °F 8.1 °F 27% 30.33 in 5.0 mi North 4.6 mph - N/A   Haze
8:53 PM 36.0 °F 30.3 °F 10.0 °F 34% 30.34 in 7.0 mi North 6.9 mph - N/A   Clear
9:53 PM 34.0 °F 29.8 °F 10.0 °F 37% 30.35 in 9.0 mi NNE 4.6 mph - N/A   Clear
10:53 PM 30.9 °F 26.2 °F 10.9 °F 43% 30.34 in 9.0 mi NE 4.6 mph - N/A   Clear
11:53 PM 30.9 °F 24.3 °F 10.9 °F 43% 30.32 in 10.0 mi NE 6.9 mph - N/A   Clear